Showing default

QIANFAN-47, 62248

Orbit data source: Space-Track

QIANFAN-47, 62248 is a Chinese payload satellite in LEO that was launched on Thu, 05 Dec 2024 UTC via a CHANG ZHENG 6A launch vehicle from the Taiyaun Space Center, China (TSC). Payloads include a variety of satellites, spacecraft, and rockets equipped with specific instruments for various scientific and technological missions. These include communications satellites like Starlink; space stations such as the ISS; scientific satellites like the Hubble; Earth observation satellites from companies like Planet Labs, Umbra, and HawkEye 360; GPS; miniature CubeSats for education and research; and military/defense satellites.

Loading next visibility...
QIANFAN-47 details
Identifier
62248, 2024-232M
Orbit
LEO
Last TLE update13 hours ago
Origin
Flag of CNYUANX (CN / PRC)
ManufacturerSECM
MissionOperational Commercial Communications
Bus & MotorQIANFAN, Unknown motor
Mass300 kg wet, ~300 kg dry
Launch date (UTC)
2024-12-05 (2 months ago)
Launch vehicle
CHANG ZHENG 6A
Launch site
Taiyaun Space Center, China (TSC)
Object type
Payload
Rocket body
Debris
Shape & HBRBox + 1 Pan, 10 m
Radar Cross Section13.200 m², Large (>1 m²)

Expand to show TLE details & history

TLE from 13 hours ago
0 QIANFAN-47
1 62248U 24232M   25035.75590446  .00000434  00000-0  19520-3 0  9991
2 62248  88.9886  73.0689 0016113  28.2741 331.9320 14.20587170 57097
Epoch: 2025-02-04T18:08Z
Definitive object data (Epoch: 2025-02-04T18:08:30.145Z)
Latitude-0.00007°
Longitude25.78666°
Altitude816.184 km
Speed7.45 km/s
True Right ascension04h 52m 16s
True Declination0° 00' 00"
Sunlit
Object was in daylight at TLE epoch
Visualization TLE readout
Latitude13.41508°
Longitude-154.51366°
Altitude834.555 km
Speed7.432 km/s
Apparent Right ascension18h 26m 17s
Apparent Declination-13° 00' 41"
Sunlit
Object is in daylight
Visualization observer readout
Local Sidereal Time08:47:34
Azimuth59.078° ENE
Elevation-48.956°
Doppler factor1
Orbital elements
Apogee altitude831.917 km
Perigee altitude808.719 km
Semi-major axis7,198.455 km
Eccentricity0.0016113
Inclination88.9886°
RAAN73.0689°
Arg. of periapsis28.2741°
True anomaly331.84497°
Mean anomaly331.932°
Eccentric anomaly331.8885°
Mean motion3.55373 °/min
BSTAR0.0001952
Orbital period101.3 mins
Loading maneuver chart data...
Loading historical data...
Loading historical data...
Loading historical data...
Loading historical data...
Loading historical data...
Loading historical data...
Loading historical data...

QIANFAN-47 Visibility forecast

Observer location: undefined°, undefined

Span
Click to sort rows by Start time (UTC) header in descending order
Start Az.
Max El. time (UTC)
Max El. Az.
Max El.
End time (UTC)
End Az.
6 mins2025-02-05 13:20:21.160Z44.413° NE2025-02-05 13:23:21.160Z80.1° E15.657°2025-02-05 13:26:21.160Z114.7° SE
8 mins2025-02-05 15:01:21.160Z347.985° N2025-02-05 15:05:21.160Z255.638° W40.194°2025-02-05 15:09:21.160Z199.192° SSW
8 mins2025-02-06 02:23:21.160Z155.67° SSE2025-02-06 02:27:21.160Z66.043° ENE38.964°2025-02-06 02:31:21.160Z10.415° NNE
5 mins2025-02-06 04:06:21.160Z252.178° W2025-02-06 04:08:21.160Z277.121° WNW16.085°2025-02-06 04:11:21.160Z314.444° NW
|